User: anonymous   Login
Location: Columbia
(38.9520°N, 92.3340°W)
Time: 19:37:08
(UTC-06:00)
Language:

Cosmos 1633 - Orbit

View from above orbital plane
View from above orbital plane
View from above satellite
View from above satellite

Ground track
Ground track

The orbit data is extracted from the following two-line orbital elements,

1 15592U 85020A   17020.79936464  .00001461  00000-0  52138-4 0  9990
2 15592  82.5392 106.9349 0013207 345.1950  14.8901 15.27966200741783
Epoch (UTC): 20 January 2017 19:11:05
Eccentricity: 0.0013207
inclination: 82.5392°
perigee height: 473 km
apogee height: 491 km
right ascension of ascending node: 106.9349°
argument of perigee: 345.1950°
revolutions per day: 15.27966200
mean anomaly at epoch: 14.8901°
orbit number at epoch: 74178

The dashed part of the orbit path shows where the satellite is in the earth's shadow,  

DLR